• In Latvia
  • List of Countries
  • For 7 days
  • Water Temperature
  • Satellite Maps
  • Weather Map
  • Weather Widgets
  • user-avatar
    Login

    Hourly Weather Norwich

    Today, 19 September, Wednesday

    Time Temperature Precipitation Wind Pressure Humidity
    00:00 +17°C° 0 mm 7 mps 755 mmHg 72%
    01:00 +17°C° 0 mm 7 mps 755 mmHg 71%
    02:00 +17°C° 0 mm 7 mps 755 mmHg 70%
    03:00 +18°C° 0 mm 7 mps 755 mmHg 69%
    04:00 +17°C° 0 mm 7 mps 755 mmHg 72%
    05:00 +17°C° 0 mm 7 mps 755 mmHg 75%
    06:00 +16°C° 0 mm 7 mps 755 mmHg 80%
    07:00 +18°C° 0 mm 8 mps 755 mmHg 75%
    08:00 +19°C° 0 mm 9 mps 755 mmHg 70%
    09:00 +21°C° 0 mm 10 mps 755 mmHg 65%
    10:00 +22°C° 0 mm 11 mps 754 mmHg 60%
    11:00 +23°C° 0 mm 12 mps 754 mmHg 55%
    12:00 +24°C° 0 mm 12 mps 754 mmHg 50%
    13:00 +24°C° 0 mm 12 mps 754 mmHg 51%
    14:00 +23°C° 0 mm 12 mps 754 mmHg 52%
    15:00 +23°C° 0 mm 12 mps 754 mmHg 53%
    16:00 +22°C° 0 mm 11 mps 754 mmHg 57%
    17:00 +21°C° 0 mm 10 mps 755 mmHg 61%
    18:00 +21°C° 0 mm 9 mps 755 mmHg 64%
    19:00 +19°C° 0 mm 9 mps 756 mmHg 66%
    20:00 +18°C° 0 mm 8 mps 756 mmHg 68%
    21:00 +17°C° 0 mm 7 mps 757 mmHg 69%
    22:00 +16°C° 0 mm 7 mps 757 mmHg 69%
    23:00 +15°C° 0 mm 7 mps 757 mmHg 68%

    Tomorrow, 20 September, Thursday

    Time Temperature Precipitation Wind Pressure Humidity
    00:00 +15°C° 0 mm 7 mps 757 mmHg 68%
    01:00 +15°C° 0 mm 6 mps 757 mmHg 69%
    02:00 +15°C° 0 mm 6 mps 757 mmHg 71%
    03:00 +15°C° 0 mm 5 mps 757 mmHg 73%
    04:00 +16°C° 0.5 mm 6 mps 756 mmHg 76%
    05:00 +16°C° 0.5 mm 6 mps 756 mmHg 78%
    06:00 +17°C° 0.5 mm 7 mps 756 mmHg 81%
    07:00 +18°C° 0.1 mm 7 mps 756 mmHg 78%
    08:00 +18°C° 0.1 mm 7 mps 756 mmHg 75%
    09:00 +20°C° 0.1 mm 7 mps 756 mmHg 71%
    10:00 +20°C° 0.3 mm 7 mps 756 mmHg 73%
    11:00 +20°C° 0.3 mm 7 mps 755 mmHg 74%
    12:00 +20°C° 0.3 mm 8 mps 755 mmHg 75%
    13:00 +20°C° 0.1 mm 8 mps 754 mmHg 72%
    14:00 +19°C° 0.1 mm 9 mps 753 mmHg 70%
    15:00 +21°C° 0.1 mm 10 mps 753 mmHg 67%
    16:00 +19°C° 0 mm 10 mps 752 mmHg 67%
    17:00 +19°C° 0 mm 10 mps 751 mmHg 68%
    18:00 +19°C° 0 mm 10 mps 750 mmHg 68%
    19:00 +19°C° 0.1 mm 11 mps 749 mmHg 69%
    20:00 +19°C° 0.1 mm 11 mps 749 mmHg 69%
    21:00 +19°C° 0.1 mm 11 mps 748 mmHg 70%
    22:00 +19°C° 0.6 mm 12 mps 747 mmHg 72%
    23:00 +19°C° 0.6 mm 13 mps 746 mmHg 74%

    Day after tomorrow, 21 September, Friday

    Time Temperature Precipitation Wind Pressure Humidity
    00:00 +19°C° 0.6 mm 13 mps 744 mmHg 76%
    01:00 +17°C° 1 mm 14 mps 745 mmHg 74%
    02:00 +13°C° 1 mm 14 mps 745 mmHg 72%
    03:00 +10°C° 1 mm 14 mps 745 mmHg 70%
    04:00 +9°C° 0 mm 14 mps 747 mmHg 70%
    05:00 +8°C° 0 mm 13 mps 748 mmHg 70%
    06:00 +7°C° 0 mm 12 mps 749 mmHg 70%
    07:00 +8°C° 0 mm 13 mps 750 mmHg 64%
    08:00 +10°C° 0 mm 13 mps 751 mmHg 57%
    09:00 +12°C° 0 mm 13 mps 751 mmHg 50%
    10:00 +12°C° 0 mm 14 mps 751 mmHg 48%
    11:00 +13°C° 0 mm 14 mps 752 mmHg 46%
    12:00 +14°C° 0 mm 15 mps 752 mmHg 44%
    13:00 +14°C° 0 mm 14 mps 752 mmHg 44%
    14:00 +15°C° 0 mm 14 mps 753 mmHg 44%
    15:00 +15°C° 0 mm 14 mps 753 mmHg 44%
    16:00 +14°C° 0 mm 12 mps 754 mmHg 47%
    17:00 +13°C° 0 mm 11 mps 755 mmHg 50%
    18:00 +12°C° 0 mm 10 mps 755 mmHg 53%
    19:00 +11°C° 0 mm 9 mps 756 mmHg 58%
    20:00 +11°C° 0 mm 9 mps 757 mmHg 62%
    21:00 +10°C° 0 mm 8 mps 758 mmHg 66%
    22:00 +10°C° 0 mm 8 mps 758 mmHg 69%
    23:00 +9°C° 0 mm 8 mps 758 mmHg 72%

    22 September, Saturday

    Time Temperature Precipitation Wind Pressure Humidity
    00:00 +9°C° 0 mm 8 mps 759 mmHg 75%
    01:00 +9°C° 0 mm 8 mps 759 mmHg 77%
    02:00 +7°C° 0 mm 8 mps 759 mmHg 79%
    03:00 +7°C° 0 mm 8 mps 760 mmHg 80%
    04:00 +6°C° 0 mm 8 mps 760 mmHg 81%
    05:00 +6°C° 0 mm 8 mps 760 mmHg 82%
    06:00 +6°C° 0 mm 8 mps 760 mmHg 82%
    07:00 +7°C° 0 mm 8 mps 761 mmHg 73%
    08:00 +9°C° 0 mm 8 mps 761 mmHg 65%
    09:00 +11°C° 0 mm 8 mps 761 mmHg 56%
    10:00 +12°C° 0 mm 7 mps 762 mmHg 52%
    11:00 +14°C° 0 mm 7 mps 762 mmHg 48%
    12:00 +14°C° 0 mm 7 mps 762 mmHg 44%
    13:00 +15°C° 0 mm 6 mps 762 mmHg 44%
    14:00 +15°C° 0 mm 6 mps 762 mmHg 43%
    15:00 +15°C° 0 mm 5 mps 762 mmHg 43%
    16:00 +14°C° 0 mm 4 mps 761 mmHg 46%
    17:00 +13°C° 0 mm 4 mps 761 mmHg 49%
    18:00 +12°C° 0 mm 3 mps 761 mmHg 53%
    19:00 +12°C° 0 mm 3 mps 761 mmHg 54%
    20:00 +13°C° 0 mm 2 mps 760 mmHg 55%
    21:00 +12°C° 0 mm 2 mps 760 mmHg 57%
    22:00 +12°C° 0.2 mm 2 mps 760 mmHg 61%
    23:00 +11°C° 0.2 mm 3 mps 759 mmHg 66%

    23 September, Sunday

    Time Temperature Precipitation Wind Pressure Humidity
    00:00 +11°C° 0.2 mm 3 mps 758 mmHg 70%
    01:00 +10°C° 1.2 mm 5 mps 757 mmHg 75%
    02:00 +10°C° 1.2 mm 6 mps 755 mmHg 81%
    03:00 +9°C° 1.2 mm 8 mps 753 mmHg 86%
    04:00 +9°C° 3.4 mm 10 mps 751 mmHg 86%
    05:00 +9°C° 3.4 mm 12 mps 749 mmHg 87%
    06:00 +10°C° 3.4 mm 14 mps 746 mmHg 87%
    07:00 +12°C° 7.5 mm 14 mps 744 mmHg 89%
    08:00 +13°C° 7.5 mm 13 mps 742 mmHg 91%
    09:00 +14°C° 7.5 mm 13 mps 740 mmHg 94%
    10:00 +15°C° 3.4 mm 12 mps 738 mmHg 85%
    11:00 +17°C° 3.4 mm 12 mps 737 mmHg 76%
    12:00 +17°C° 3.4 mm 12 mps 735 mmHg 67%
    13:00 +16°C° 0.6 mm 10 mps 734 mmHg 73%
    14:00 +15°C° 0.6 mm 9 mps 734 mmHg 79%
    15:00 +14°C° 0.6 mm 7 mps 733 mmHg 85%
    16:00 +12°C° 2 mm 10 mps 735 mmHg 85%
    17:00 +12°C° 2 mm 13 mps 736 mmHg 86%
    18:00 +11°C° 2 mm 16 mps 738 mmHg 86%
    19:00 +10°C° 1.7 mm 18 mps 741 mmHg 81%
    20:00 +8°C° 1.7 mm 19 mps 743 mmHg 76%
    21:00 +8°C° 1.7 mm 21 mps 746 mmHg 71%
    22:00 +8°C° 0.1 mm 20 mps 749 mmHg 70%
    23:00 +9°C° 0.1 mm 18 mps 751 mmHg 69%

    24 September, Monday

    Time Temperature Precipitation Wind Pressure Humidity
    00:00 +9°C° 0.1 mm 17 mps 754 mmHg 68%
    01:00 +7°C° 0.2 mm 16 mps 755 mmHg 68%
    02:00 +7°C° 0.2 mm 16 mps 756 mmHg 68%
    03:00 +8°C° 0.2 mm 15 mps 758 mmHg 68%
    04:00 +6°C° 0.1 mm 15 mps 759 mmHg 69%
    05:00 +6°C° 0.1 mm 14 mps 760 mmHg 69%
    06:00 +6°C° 0.1 mm 14 mps 761 mmHg 69%
    07:00 +6°C° 0.1 mm 14 mps 762 mmHg 68%
    08:00 +7°C° 0.1 mm 13 mps 763 mmHg 66%
    09:00 +8°C° 0.1 mm 13 mps 764 mmHg 64%
    10:00 +8°C° 0.1 mm 13 mps 765 mmHg 62%
    11:00 +8°C° 0.1 mm 13 mps 766 mmHg 60%
    12:00 +9°C° 0.1 mm 12 mps 767 mmHg 58%
    13:00 +9°C° 0.1 mm 12 mps 767 mmHg 56%
    14:00 +9°C° 0.1 mm 11 mps 768 mmHg 55%
    15:00 +11°C° 0.1 mm 11 mps 768 mmHg 53%
    16:00 +9°C° 0.1 mm 10 mps 768 mmHg 57%
    17:00 +8°C° 0.1 mm 9 mps 769 mmHg 61%
    18:00 +7°C° 0.1 mm 8 mps 769 mmHg 64%
    19:00 +8°C° 0 mm 7 mps 770 mmHg 67%
    20:00 +6°C° 0 mm 7 mps 770 mmHg 69%
    21:00 +6°C° 0 mm 7 mps 771 mmHg 71%
    22:00 +7°C° 0 mm 6 mps 771 mmHg 73%
    23:00 +7°C° 0 mm 6 mps 771 mmHg 75%
    Show more